This is the latest recevied weather packets stored in our database for station/object N1IJV-10. If no packets are shown the sender has not sent any weather packets the latest 10 day(s).
| Time | Temp. | Humidity | Pressure | Rain* | Wind** | Luminosity | Snow |
|---|---|---|---|---|---|---|---|
| 1777474180 | 12.78° C | 73% | 1012.6 hPa | 0 mm | - | 633 W/m² | - |
| 1777473878 | 13.89° C | 73% | 1012.5 hPa | 0 mm | - | 111 W/m² | - |
| 1777473575 | 12.78° C | 77% | 1012.5 hPa | 0 mm | - | 576 W/m² | - |
| 1777473271 | 12.22° C | 75% | 1012.6 hPa | 0 mm | - | 175 W/m² | - |
| 1777472967 | 12.22° C | 76% | 1012.6 hPa | 0 mm | - | 135 W/m² | - |
| 1777472664 | 12.78° C | 76% | 1012.4 hPa | 0 mm | - | 85 W/m² | - |
| 1777472360 | 13.33° C | 73% | 1012.5 hPa | 0 mm | - | 126 W/m² | - |
| 1777472058 | 12.78° C | 72% | 1012.6 hPa | 0 mm | - | 578 W/m² | - |
| 1777471753 | 13.33° C | 70% | 1012.5 hPa | 0 mm | - | 129 W/m² | - |
| 1777471450 | 13.33° C | 74% | 1012.5 hPa | 0 mm | - | 494 W/m² | - |
| 1777471146 | 12.78° C | 76% | 1012.7 hPa | 0 mm | - | 416 W/m² | - |
| 1777470843 | 12.22° C | 77% | 1012.5 hPa | 0 mm | - | 374 W/m² | - |
| 1777470540 | 12.22° C | 80% | 1012.5 hPa | 0 mm | - | 352 W/m² | - |
| 1777470236 | 11.67° C | 81% | 1012.5 hPa | 0 mm | - | 114 W/m² | - |
| 1777469933 | 11.11° C | 82% | 1012.8 hPa | 0 mm | - | 79 W/m² | - |
| 1777469628 | 11.11° C | 82% | 1012.6 hPa | 0 mm | - | 62 W/m² | - |
| 1777469324 | 11.11° C | 82% | 1012.8 hPa | 0 mm | - | 64 W/m² | - |
| 1777469019 | 11.11° C | 83% | 1012.7 hPa | 0 mm | - | 79 W/m² | - |
| 1777468715 | 11.11° C | 82% | 1013 hPa | 0 mm | - | 80 W/m² | - |
| 1777468411 | 10.56° C | 81% | 1012.6 hPa | 0 mm | - | 98 W/m² | - |
| 1777468107 | 10.56° C | 82% | 1012.7 hPa | 0 mm | - | 93 W/m² | - |
| 1777467804 | 10.56° C | 83% | 1012.8 hPa | 0 mm | - | 104 W/m² | - |
| 1777467499 | 10.56° C | 84% | 1012.8 hPa | 0 mm | - | 122 W/m² | - |
| 1777467195 | 10.56° C | 85% | 1012.9 hPa | 0 mm | - | 106 W/m² | - |
| 1777466892 | 10.56° C | 85% | 1012.9 hPa | 0 mm | - | 62 W/m² | - |
* Rain latest hour (hover to see other rain measurements)
** Current wind speed in m/s (hover to see current wind gust speed)